Weather History for Cambridge, MD

Change the Weather History Date:

Wednesday, January 1, 2014

  Actual Average (KESN) Record (KESN)
Temperature  
Mean Temperature 38 °F -  
Max Temperature 48 °F 44 °F 66 °F (1966)
Min Temperature 28 °F 31 °F 9 °F (1963)
Degree Days  
Heating Degree Days 27    
Moisture  
Dew Point 25 °F    
Average Humidity 68    
Maximum Humidity 93    
Minimum Humidity 37    
Precipitation  
Precipitation 0.00 in - - ()
Sea Level Pressure  
Sea Level Pressure 30.33 in    
Wind  
Wind Speed 3 mph (SSE)    
Max Wind Speed 13 mph    
Max Gust Speed 16 mph    
Visibility 10 miles    
Events      
Averages and records for this station are not official NWS values.
T = Trace of Precipitation, MM = Missing Value Source: NWS Daily Summary

Daily Weather History Graph

Daily Weather History Graph

Search for Another Location

Airport:

Trip Planner

Search our weather history database for the weather conditions in past years. The results will help you decide how hot, cold, wet, or windy it might be!

Date:

Astronomy

Jan. 01, 2014 Rise Set
Actual Time 7:21 AM EST 4:53 PM EST
Civil Twilight 6:52 AM EST 5:23 PM EST
Nautical Twilight 6:18 AM EST 5:56 PM EST
Astronomical Twilight 5:46 AM EST 6:28 PM EST
Moon 7:10 AM EST (1/1) 5:35 PM EST (1/1)
Length of Visible Light 10h 31m
Length of Day
9h 32m
New Moon, 0% of the Moon is Illuminated
Jan 1
New Moon
Jan 7
First Quarter
Jan 15
Full
Jan 24
Last Quarter
Jan 30
New

Hourly Weather History & Observations

Time (EST) Temp. Windchill Dew Point Humidity Pressure Visibility Wind Dir Wind Speed Gust Speed Precip Events Conditions
12:03 AM 35.6 °F 32.8 °F 19.4 °F 52% 30.35 in 10.0 mi NNW 3.5 mph - N/A   Clear
12:23 AM 35.6 °F 31.7 °F 19.4 °F 52% 30.35 in 10.0 mi North 4.6 mph - N/A   Clear
12:43 AM 33.8 °F 29.6 °F 19.4 °F 56% 30.34 in 10.0 mi NNW 4.6 mph - N/A   Clear
1:03 AM 35.6 °F 29.2 °F 19.4 °F 52% 30.35 in 10.0 mi NNW 8.1 mph - N/A   Clear
1:23 AM 35.6 °F 32.8 °F 19.4 °F 52% 30.35 in 10.0 mi West 3.5 mph - N/A   Clear
1:43 AM 32.0 °F - 19.4 °F 60% 30.36 in 10.0 mi Calm Calm - N/A   Clear
2:03 AM 32.0 °F - 23.0 °F 69% 30.37 in 10.0 mi Calm Calm - N/A   Clear
2:23 AM 30.2 °F - 21.2 °F 69% 30.37 in 10.0 mi Calm Calm - N/A   Clear
2:43 AM 30.2 °F - 23.0 °F 75% 30.37 in 10.0 mi Calm Calm - N/A   Clear
3:03 AM 30.2 °F - 21.2 °F 69% 30.38 in 10.0 mi Calm Calm - N/A   Clear
3:23 AM 30.2 °F - 21.2 °F 69% 30.37 in 10.0 mi Calm Calm - N/A   Clear
3:43 AM 30.2 °F - 21.2 °F 69% 30.37 in 10.0 mi Calm Calm - N/A   Clear
4:03 AM 30.2 °F - 21.2 °F 69% 30.36 in 10.0 mi Calm Calm - N/A   Clear
4:23 AM 30.2 °F - 23.0 °F 75% 30.38 in 10.0 mi Calm Calm - N/A   Clear
4:43 AM 28.4 °F - 23.0 °F 80% 30.38 in 10.0 mi Calm Calm - N/A   Clear
5:03 AM 30.2 °F - 23.0 °F 75% 30.39 in 10.0 mi Calm Calm - N/A   Clear
5:23 AM 30.2 °F - 23.0 °F 75% 30.40 in 10.0 mi Calm Calm - N/A   Clear
5:43 AM 28.4 °F - 23.0 °F 80% 30.40 in 10.0 mi Calm Calm - N/A   Clear
6:03 AM 30.2 °F - 23.0 °F 75% 30.41 in 10.0 mi Calm Calm - N/A   Clear
6:23 AM 28.4 °F - 23.0 °F 80% 30.40 in 10.0 mi Calm Calm - N/A   Clear
6:43 AM 28.4 °F - 23.0 °F 80% 30.40 in 10.0 mi Calm Calm - N/A   Clear
7:04 AM 28.4 °F - 23.0 °F 80% 30.41 in 10.0 mi Calm Calm - N/A   Clear
7:24 AM 28.4 °F - 23.0 °F 80% 30.41 in 10.0 mi Calm Calm - N/A   Clear
7:44 AM 28.4 °F - 23.0 °F 80% 30.42 in 10.0 mi Calm Calm - N/A   Clear
8:04 AM 30.2 °F - 24.8 °F 80% 30.43 in 10.0 mi Calm Calm - N/A   Clear
8:24 AM 32.0 °F 28.7 °F 26.6 °F 80% 30.43 in 10.0 mi SE 3.5 mph - N/A   Clear
8:44 AM 32.0 °F - 24.8 °F 75% 30.43 in 10.0 mi Calm Calm - N/A   Clear
9:04 AM 32.0 °F - 23.0 °F 69% 30.44 in 10.0 mi Calm Calm - N/A   Clear
9:24 AM 32.0 °F - 24.8 °F 75% 30.43 in 10.0 mi Calm Calm - N/A   Clear
9:44 AM 33.8 °F 30.8 °F 26.6 °F 75% 30.44 in 10.0 mi SSE 3.5 mph - N/A   Clear
10:04 AM 35.6 °F 32.8 °F 26.6 °F 70% 30.45 in 10.0 mi SE 3.5 mph - N/A   Clear
10:24 AM 37.4 °F 31.4 °F 23.0 °F 56% 30.43 in 10.0 mi SSE 8.1 mph - N/A   Clear
10:44 AM 37.4 °F 33.8 °F 23.0 °F 56% 30.42 in 10.0 mi SSE 4.6 mph - N/A   Clear
11:04 AM 41.0 °F 37.1 °F 21.2 °F 45% 30.42 in 10.0 mi SSE 5.8 mph - N/A   Clear
11:24 AM 41.0 °F 36.4 °F 21.2 °F 45% 30.41 in 10.0 mi SE 6.9 mph - N/A   Clear
11:44 AM 42.8 °F 38.0 °F 19.4 °F 39% 30.38 in 10.0 mi SSE 8.1 mph - N/A   Clear
12:04 PM 42.8 °F 38.0 °F 21.2 °F 42% 30.37 in 10.0 mi SSE 8.1 mph - N/A   Clear
12:24 PM 44.6 °F 40.7 °F 19.4 °F 37% 30.36 in 10.0 mi South 6.9 mph - N/A   Clear
12:44 PM 44.6 °F 39.2 °F 21.2 °F 39% 30.36 in 10.0 mi South 10.4 mph - N/A   Clear
1:04 PM 44.6 °F 39.7 °F 23.0 °F 43% 30.35 in 10.0 mi South 9.2 mph - N/A   Clear
1:24 PM 44.6 °F 39.7 °F 23.0 °F 43% 30.35 in 10.0 mi SSE 9.2 mph - N/A   Clear
1:44 PM 46.4 °F 42.4 °F 26.6 °F 46% 30.33 in 10.0 mi SSE 8.1 mph - N/A   Clear
2:04 PM 46.4 °F 40.7 °F 26.6 °F 46% 30.33 in 10.0 mi South 12.7 mph - N/A   Clear
2:24 PM 46.4 °F 41.5 °F 26.6 °F 46% 30.32 in 10.0 mi South 10.4 mph - N/A   Clear
2:44 PM 48.2 °F - 28.4 °F 46% 30.31 in 10.0 mi SSE 11.5 mph 16.1 mph N/A   Clear
3:04 PM 48.2 °F - 28.4 °F 46% 30.30 in 10.0 mi South 9.2 mph - N/A   Clear
3:24 PM 48.2 °F - 28.4 °F 46% 30.29 in 10.0 mi South 10.4 mph - N/A   Clear
3:45 PM 48.2 °F - 28.4 °F 46% 30.29 in 10.0 mi South 8.1 mph - N/A   Clear
4:05 PM 46.4 °F 43.5 °F 28.4 °F 50% 30.29 in 10.0 mi South 5.8 mph 9.2 mph N/A   Clear
4:25 PM 46.4 °F 42.9 °F 30.2 °F 53% 30.28 in 10.0 mi South 6.9 mph - N/A   Clear
4:45 PM 44.6 °F 41.4 °F 30.2 °F 57% 30.27 in 10.0 mi SSE 5.8 mph - N/A   Clear
5:05 PM 42.8 °F 40.1 °F 30.2 °F 61% 30.26 in 10.0 mi SSE 4.6 mph - N/A   Clear
5:25 PM 41.0 °F 38.0 °F 30.2 °F 65% 30.26 in 10.0 mi SE 4.6 mph - N/A   Clear
5:45 PM 41.0 °F 38.0 °F 32.0 °F 70% 30.26 in 10.0 mi SE 4.6 mph - N/A   Clear
6:05 PM 37.4 °F 34.9 °F 30.2 °F 75% 30.26 in 10.0 mi SSE 3.5 mph - N/A   Clear
6:25 PM 37.4 °F 34.9 °F 32.0 °F 81% 30.26 in 10.0 mi SSE 3.5 mph - N/A   Clear
6:45 PM 35.6 °F 32.8 °F 30.2 °F 81% 30.25 in 10.0 mi SE 3.5 mph - N/A   Clear
7:05 PM 35.6 °F 32.8 °F 32.0 °F 87% 30.25 in 10.0 mi SSE 3.5 mph - N/A   Clear
7:25 PM 35.6 °F - 32.0 °F 87% 30.25 in 10.0 mi Calm Calm - N/A   Clear
7:45 PM 33.8 °F 30.8 °F 30.2 °F 87% 30.23 in 10.0 mi ESE 3.5 mph - N/A   Clear
8:05 PM 33.8 °F - 30.2 °F 87% 30.22 in 10.0 mi Calm Calm - N/A   Clear
8:25 PM 33.8 °F - 30.2 °F 87% 30.21 in 10.0 mi Calm Calm - N/A   Clear
8:45 PM 33.8 °F - 30.2 °F 87% 30.21 in 10.0 mi Calm Calm - N/A   Clear
9:05 PM 33.8 °F - 30.2 °F 87% 30.21 in 10.0 mi Calm Calm - N/A   Clear
9:25 PM 32.0 °F - 30.2 °F 93% 30.20 in 10.0 mi Calm Calm - N/A   Clear
9:45 PM 32.0 °F - 30.2 °F 93% 30.20 in 10.0 mi Calm Calm - N/A   Clear
10:05 PM 32.0 °F - 28.4 °F 87% 30.19 in 7.0 mi Calm Calm - N/A   Clear
10:25 PM 32.0 °F - 28.4 °F 87% 30.18 in 10.0 mi Calm Calm - N/A   Clear
10:45 PM 32.0 °F - 28.4 °F 87% 30.19 in 10.0 mi Calm Calm - N/A   Clear
11:05 PM 32.0 °F - 28.4 °F 87% 30.18 in 7.0 mi Calm Calm - N/A   Clear
11:25 PM 32.0 °F - 28.4 °F 87% 30.17 in 10.0 mi Calm Calm - N/A   Clear
11:45 PM 32.0 °F - 30.2 °F 93% 30.16 in 10.0 mi Calm Calm - N/A   Clear